Weather History for Perryton, TX

Change the Weather History Date:

Tuesday, December 25, 2012

  Actual Average Record
Temperature  
Mean Temperature 17 °F -  
Max Temperature 24 °F 43 °F 69 °F (2005)
Min Temperature 10 °F 16 °F -4 °F (1983)
Degree Days  
Heating Degree Days 48    
Moisture  
Dew Point 13 °F    
Average Humidity 82    
Maximum Humidity 93    
Minimum Humidity 68    
Precipitation  
Precipitation 0.00 in - - ()
Sea Level Pressure  
Sea Level Pressure 30.08 in    
Wind  
Wind Speed 20 mph (North)    
Max Wind Speed 31 mph    
Max Gust Speed 39 mph    
Visibility 6 miles    
Events      
Averages and records for this station are not official NWS values.
T = Trace of Precipitation, MM = Missing Value Source: NWS Daily Summary

Daily Weather History Graph

Daily Weather History Graph

Search for Another Location

Airport:

Trip Planner

Search our weather history database for the weather conditions in past years. The results will help you decide how hot, cold, wet, or windy it might be!

Date:

Astronomy

Dec. 25, 2012 Rise Set
Actual Time 7:52 AM CST 5:33 PM CST
Civil Twilight 7:24 AM CST 6:02 PM CST
Nautical Twilight 6:51 AM CST 6:35 PM CST
Astronomical Twilight 6:20 AM CST 7:06 PM CST
Moon 3:42 PM CST (12/25) 5:28 AM CST (12/25)
Length of Visible Light 10h 38m
Length of Day
9h 41m
Waxing Gibbous, 94% of the Moon is Illuminated
Dec 25
Waxing Gibbous
Dec 28
Full
Jan 4
Last Quarter
Jan 11
New
Jan 18
First Quarter

Hourly Weather History & Observations

Time (CST) Temp. Windchill Dew Point Humidity Pressure Visibility Wind Dir Wind Speed Gust Speed Precip Events Conditions
12:15 AM 24.8 °F 11.1 °F 15.8 °F 69% 29.84 in 10.0 mi ENE 18.4 mph - N/A   Scattered Clouds
12:35 AM 24.8 °F 11.9 °F 15.8 °F 69% 29.85 in 10.0 mi ENE 16.1 mph 25.3 mph N/A   Clear
12:55 AM 23.0 °F 9.2 °F 15.8 °F 74% 29.86 in 10.0 mi NE 17.3 mph 21.9 mph N/A   Clear
1:15 AM 23.0 °F 9.2 °F 14.0 °F 68% 29.86 in 10.0 mi NE 17.3 mph 24.2 mph N/A   Scattered Clouds
1:35 AM 21.2 °F 6.4 °F 14.0 °F 74% 29.86 in 10.0 mi NNE 18.4 mph - N/A   Clear
1:55 AM 21.2 °F 5.6 °F 14.0 °F 74% 29.86 in 10.0 mi NNE 20.7 mph 25.3 mph N/A   Clear
2:15 AM 19.4 °F 4.1 °F 14.0 °F 80% 29.87 in 10.0 mi NE 18.4 mph 23.0 mph N/A   Scattered Clouds
2:35 AM 19.4 °F 3.6 °F 14.0 °F 80% 29.89 in 10.0 mi NNE 19.6 mph 23.0 mph N/A   Mostly Cloudy
2:55 AM 19.4 °F 4.5 °F 14.0 °F 80% 29.90 in 10.0 mi NNE 17.3 mph 26.5 mph N/A   Overcast
3:15 AM 19.4 °F 4.1 °F 14.0 °F 80% 29.91 in 10.0 mi NNE 18.4 mph 25.3 mph N/A   Overcast
3:35 AM 19.4 °F 6.0 °F 14.0 °F 80% 29.92 in 10.0 mi NNE 13.8 mph 19.6 mph N/A   Overcast
3:55 AM 19.4 °F 6.0 °F 14.0 °F 80% 29.93 in 10.0 mi NNE 13.8 mph 24.2 mph N/A   Overcast
4:15 AM 19.4 °F 4.1 °F 14.0 °F 80% 29.93 in 10.0 mi North 18.4 mph 23.0 mph N/A   Overcast
4:35 AM 19.4 °F 3.6 °F 14.0 °F 80% 29.93 in 10.0 mi North 19.6 mph 27.6 mph N/A   Overcast
4:55 AM 17.6 °F 0.5 °F 14.0 °F 86% 29.94 in 10.0 mi North 21.9 mph 25.3 mph N/A   Overcast
5:15 AM 17.6 °F 0.9 °F 14.0 °F 86% 29.95 in 10.0 mi North 20.7 mph 28.8 mph N/A   Overcast
5:35 AM 17.6 °F 2.2 °F 14.0 °F 86% 29.96 in 10.0 mi North 17.3 mph 27.6 mph N/A   Overcast
5:55 AM 17.6 °F 0.5 °F 12.2 °F 79% 29.97 in 7.0 mi North 21.9 mph 29.9 mph N/A   Overcast
6:15 AM 17.6 °F 0.9 °F 12.2 °F 79% 29.98 in 7.0 mi North 20.7 mph 28.8 mph N/A   Overcast
6:35 AM 17.6 °F 0.5 °F 12.2 °F 79% 29.98 in 3.0 mi North 21.9 mph 31.1 mph N/A   Overcast
6:55 AM 17.6 °F -0.3 °F 12.2 °F 79% 29.99 in 5.0 mi North 24.2 mph 29.9 mph N/A   Overcast
7:15 AM 17.6 °F 1.3 °F 12.2 °F 79% 30.01 in 4.0 mi North 19.6 mph 29.9 mph N/A   Overcast
7:35 AM 17.6 °F 1.3 °F 12.2 °F 79% 30.02 in 5.0 mi North 19.6 mph 26.5 mph N/A   Overcast
7:55 AM 17.6 °F -0.6 °F 12.2 °F 79% 30.03 in 7.0 mi North 25.3 mph 29.9 mph N/A   Overcast
8:15 AM 17.6 °F 0.1 °F 12.2 °F 79% 30.03 in 7.0 mi North 23.0 mph 29.9 mph N/A   Overcast
8:35 AM 17.6 °F -1.0 °F 12.2 °F 79% 30.03 in 5.0 mi North 26.5 mph 33.4 mph N/A   Overcast
8:55 AM 17.6 °F -0.6 °F 12.2 °F 79% 30.03 in 4.0 mi North 25.3 mph 36.8 mph N/A   Overcast
9:15 AM 17.6 °F -0.6 °F 12.2 °F 79% 30.04 in 4.0 mi North 25.3 mph 39.1 mph N/A   Overcast
9:35 AM 17.6 °F -0.6 °F 12.2 °F 79% 30.05 in 2.5 mi North 25.3 mph 34.5 mph N/A   Overcast
9:55 AM 17.6 °F -0.3 °F 12.2 °F 79% 30.06 in 1.2 mi North 24.2 mph 36.8 mph N/A   Overcast
10:15 AM 17.6 °F -1.0 °F 12.2 °F 79% 30.08 in 2.5 mi North 26.5 mph 33.4 mph N/A   Overcast
10:35 AM 17.6 °F -1.0 °F 12.2 °F 79% 30.09 in 2.5 mi North 26.5 mph 35.7 mph N/A   Overcast
10:55 AM 17.6 °F -0.3 °F 12.2 °F 79% 30.12 in 1.5 mi North 24.2 mph 32.2 mph N/A   Overcast
11:15 AM 17.6 °F -0.3 °F 12.2 °F 79% 30.12 in 1.0 mi North 24.2 mph 35.7 mph N/A   Overcast
11:35 AM 17.6 °F -0.3 °F 14.0 °F 86% 30.12 in 0.8 mi North 24.2 mph 31.1 mph N/A   Overcast
11:55 AM 17.6 °F -1.0 °F 14.0 °F 86% 30.12 in 0.8 mi North 26.5 mph 34.5 mph N/A   Overcast
12:15 PM 17.6 °F -0.3 °F 14.0 °F 86% 30.13 in 0.8 mi North 24.2 mph 33.4 mph N/A   Overcast
12:35 PM 19.4 °F 2.5 °F 14.0 °F 80% 30.14 in 1.0 mi North 23.0 mph 32.2 mph N/A   Overcast
12:55 PM 19.4 °F 1.8 °F 14.0 °F 80% 30.13 in 1.5 mi North 25.3 mph 34.5 mph N/A   Overcast
1:15 PM 19.4 °F 1.8 °F 14.0 °F 80% 30.13 in 1.5 mi North 25.3 mph 32.2 mph N/A   Overcast
1:35 PM 19.4 °F 1.1 °F 15.8 °F 86% 30.14 in 1.0 mi North 27.6 mph 34.5 mph N/A   Overcast
1:55 PM 19.4 °F 1.4 °F 15.8 °F 86% 30.14 in 1.0 mi North 26.5 mph 35.7 mph N/A   Overcast
2:15 PM 19.4 °F 2.1 °F 14.0 °F 80% 30.15 in 1.0 mi North 24.2 mph 35.7 mph N/A   Overcast
2:35 PM 19.4 °F 1.4 °F 15.8 °F 86% 30.15 in 2.5 mi North 26.5 mph 35.7 mph N/A   Overcast
2:55 PM 21.2 °F 3.5 °F 15.8 °F 80% 30.15 in 2.5 mi North 27.6 mph 34.5 mph N/A   Overcast
3:15 PM 21.2 °F 3.9 °F 15.8 °F 80% 30.16 in 2.5 mi North 26.5 mph 34.5 mph N/A   Overcast
3:35 PM 21.2 °F 3.9 °F 15.8 °F 80% 30.16 in 2.5 mi North 26.5 mph 34.5 mph N/A   Overcast
3:55 PM 19.4 °F 0.5 °F 14.0 °F 80% 30.17 in 2.0 mi North 29.9 mph 34.5 mph N/A   Overcast
4:15 PM 19.4 °F 1.4 °F 15.8 °F 86% 30.17 in 3.0 mi North 26.5 mph 33.4 mph N/A   Overcast
4:35 PM 19.4 °F 0.2 °F 14.0 °F 80% 30.18 in 3.0 mi North 31.1 mph 36.8 mph N/A   Overcast
4:55 PM 19.4 °F 1.1 °F 14.0 °F 80% 30.18 in 4.0 mi North 27.6 mph 33.4 mph N/A   Mostly Cloudy
5:15 PM 17.6 °F -0.3 °F 14.0 °F 86% 30.18 in 7.0 mi North 24.2 mph 31.1 mph N/A   Mostly Cloudy
5:35 PM 17.6 °F 0.1 °F 12.2 °F 79% 30.18 in 10.0 mi North 23.0 mph - N/A   Scattered Clouds
5:55 PM 17.6 °F 0.1 °F 12.2 °F 79% 30.18 in 10.0 mi North 23.0 mph - N/A   Clear
6:15 PM 17.6 °F -0.3 °F 12.2 °F 79% 30.19 in 7.0 mi North 24.2 mph 28.8 mph N/A   Clear
6:35 PM 15.8 °F -1.5 °F 12.2 °F 86% 30.21 in 10.0 mi North 20.7 mph 27.6 mph N/A   Clear
6:55 PM 14.0 °F -3.0 °F 12.2 °F 93% 30.21 in 10.0 mi North 18.4 mph 23.0 mph N/A   Clear
7:15 PM 14.0 °F -2.5 °F 10.4 °F 86% 30.21 in 7.0 mi North 17.3 mph - N/A   Clear
7:35 PM 14.0 °F -3.4 °F 10.4 °F 86% 30.22 in 10.0 mi North 19.6 mph - N/A   Scattered Clouds
7:55 PM 14.0 °F -2.5 °F 10.4 °F 86% 30.22 in 10.0 mi North 17.3 mph 23.0 mph N/A   Clear
8:15 PM 12.2 °F -3.7 °F 10.4 °F 92% 30.23 in 10.0 mi NNW 15.0 mph - N/A   Clear
8:35 PM 12.2 °F -3.1 °F 10.4 °F 92% 30.24 in 10.0 mi NNW 13.8 mph - N/A   Clear
8:55 PM 12.2 °F -2.5 °F 8.6 °F 85% 30.24 in 10.0 mi NNW 12.7 mph - N/A   Clear
9:15 PM 12.2 °F -2.5 °F 8.6 °F 85% 30.25 in 10.0 mi NW 12.7 mph - N/A   Clear
9:35 PM 10.4 °F -3.3 °F 6.8 °F 85% 30.27 in 10.0 mi NW 10.4 mph - N/A   Clear
10:15 PM 10.4 °F -4.1 °F 6.8 °F 85% 30.27 in 10.0 mi NW 11.5 mph - N/A   Clear
10:35 PM 10.4 °F -4.1 °F 6.8 °F 85% 30.27 in 10.0 mi NW 11.5 mph - N/A   Clear
10:55 PM 10.4 °F -4.1 °F 6.8 °F 85% 30.27 in 10.0 mi NW 11.5 mph - N/A   Clear
11:15 PM 10.4 °F -6.0 °F 6.8 °F 85% 30.26 in 10.0 mi NNW 15.0 mph - N/A   Clear
11:35 PM 10.4 °F -6.0 °F 8.6 °F 92% 30.24 in 10.0 mi North 15.0 mph - N/A   Clear
11:55 PM 10.4 °F -5.4 °F 6.8 °F 85% 30.24 in 10.0 mi NNW 13.8 mph - N/A   Clear